Time,TemperatureF,DewpointF,PressureIn,WindDirection,WindDirectionDegrees,WindSpeedMPH,WindSpeedGustMPH,Humidity,HourlyPrecipIn,Conditions,Clouds,dailyrainin,SoftwareType,DateUTC
2013-02-15 00:00:00,51.7,48.0,30.15,SW,233,8.1,8.1,87,0.00,CLR,,0.00,WeatherDisplay:10.37,2013-02-14 23:00:00,
2013-02-15 00:05:00,51.7,48.0,30.15,SW,222,8.1,8.1,87,0.00,CLR,,0.00,WeatherDisplay:10.37,2013-02-14 23:05:00,
2013-02-15 00:10:00,51.6,47.9,30.15,SW,229,6.9,6.9,87,0.00,CLR,,0.00,WeatherDisplay:10.37,2013-02-14 23:10:00,
2013-02-15 00:15:00,51.6,47.9,30.15,SW,226,8.1,8.1,87,0.00,CLR,,0.00,WeatherDisplay:10.37,2013-02-14 23:15:00,
2013-02-15 00:21:00,51.7,48.0,30.15,SW,222,9.2,9.2,87,0.00,CLR,,0.00,WeatherDisplay:10.37,2013-02-14 23:21:00,
2013-02-15 00:26:00,51.6,47.9,30.14,SW,229,8.1,8.1,87,0.00,CLR,,0.00,WeatherDisplay:10.37,2013-02-14 23:26:00,
2013-02-15 00:31:00,51.5,48.1,30.14,SW,222,8.1,8.1,88,0.00,CLR,,0.00,WeatherDisplay:10.37,2013-02-14 23:31:00,
2013-02-15 00:36:00,51.5,48.1,30.14,SW,231,8.1,8.1,88,0.00,CLR,,0.00,WeatherDisplay:10.37,2013-02-14 23:36:00,
2013-02-15 00:41:00,51.4,48.0,30.14,SW,236,8.1,8.1,88,0.00,CLR,,0.00,WeatherDisplay:10.37,2013-02-14 23:41:00,
2013-02-15 00:46:00,51.4,48.0,30.14,SW,231,9.2,9.2,88,0.00,CLR,,0.00,WeatherDisplay:10.37,2013-02-14 23:46:00,
2013-02-15 00:51:00,51.5,48.1,30.14,WSW,243,9.2,9.2,88,0.00,CLR,,0.00,WeatherDisplay:10.37,2013-02-14 23:51:00,
2013-02-15 00:56:00,51.4,48.0,30.15,WSW,238,8.1,8.1,88,0.00,CLR,,0.00,WeatherDisplay:10.37,2013-02-14 23:56:00,
2013-02-15 01:01:00,51.5,48.1,30.15,SW,228,9.2,9.2,88,0.00,CLR,,0.00,WeatherDisplay:10.37,2013-02-15 00:01:00,
2013-02-15 01:06:00,51.5,48.1,30.15,SW,235,8.1,8.1,88,0.00,CLR,,0.00,WeatherDisplay:10.37,2013-02-15 00:06:00,
2013-02-15 01:11:00,51.3,47.9,30.14,WSW,237,8.1,8.1,88,0.00,CLR,,0.00,WeatherDisplay:10.37,2013-02-15 00:11:00,
2013-02-15 01:16:00,51.2,47.8,30.14,WSW,242,8.1,8.1,88,0.00,CLR,,0.00,WeatherDisplay:10.37,2013-02-15 00:16:00,
2013-02-15 01:21:00,51.3,48.2,30.14,SW,235,9.2,9.2,89,0.00,CLR,,0.00,WeatherDisplay:10.37,2013-02-15 00:21:00,
2013-02-15 01:26:00,51.3,48.2,30.14,WSW,238,9.2,9.2,89,0.00,CLR,,0.00,WeatherDisplay:10.37,2013-02-15 00:26:00,
2013-02-15 01:31:00,51.2,48.1,30.14,WSW,238,10.4,10.4,89,0.00,CLR,,0.00,WeatherDisplay:10.37,2013-02-15 00:31:00,
2013-02-15 01:36:00,51.2,48.1,30.13,WSW,249,9.2,9.2,89,0.00,CLR,,0.00,WeatherDisplay:10.37,2013-02-15 00:36:00,
2013-02-15 01:41:00,51.1,48.0,30.13,SW,236,9.2,9.2,89,0.00,CLR,,0.00,WeatherDisplay:10.37,2013-02-15 00:41:00,
2013-02-15 01:46:00,51.1,48.3,30.13,SW,236,10.4,10.4,90,0.00,CLR,,0.00,WeatherDisplay:10.37,2013-02-15 00:46:00,
2013-02-15 01:51:00,50.9,48.1,30.13,WSW,248,9.2,9.2,90,0.00,CLR,,0.00,WeatherDisplay:10.37,2013-02-15 00:51:00,
2013-02-15 01:56:00,50.9,48.1,30.13,SW,228,9.2,9.2,90,0.00,CLR,,0.00,WeatherDisplay:10.37,2013-02-15 00:56:00,
2013-02-15 02:01:00,50.9,48.1,30.13,WSW,237,10.4,10.4,90,0.00,CLR,,0.00,WeatherDisplay:10.37,2013-02-15 01:01:00,
2013-02-15 02:06:00,51.0,48.2,30.13,WSW,239,9.2,9.2,90,0.00,CLR,,0.00,WeatherDisplay:10.37,2013-02-15 01:06:00,
2013-02-15 02:11:00,50.9,48.1,30.13,WSW,238,9.2,9.2,90,0.00,CLR,,0.00,WeatherDisplay:10.37,2013-02-15 01:11:00,
2013-02-15 02:16:00,51.0,48.5,30.13,SW,220,10.4,10.4,91,0.00,CLR,,0.00,WeatherDisplay:10.37,2013-02-15 01:16:00,
2013-02-15 02:21:00,51.0,48.2,30.13,SW,234,9.2,9.2,90,0.00,CLR,,0.00,WeatherDisplay:10.37,2013-02-15 01:21:00,
2013-02-15 02:26:00,51.0,48.2,30.13,SW,232,9.2,9.2,90,0.00,CLR,,0.00,WeatherDisplay:10.37,2013-02-15 01:26:00,
2013-02-15 02:31:00,51.0,48.2,30.13,SW,233,9.2,9.2,90,0.00,CLR,,0.00,WeatherDisplay:10.37,2013-02-15 01:31:00,
2013-02-15 02:36:00,51.0,48.2,30.13,SW,229,9.2,9.2,90,0.00,CLR,,0.00,WeatherDisplay:10.37,2013-02-15 01:36:00,
2013-02-15 02:41:00,50.9,48.1,30.12,SW,235,9.2,9.2,90,0.00,CLR,,0.00,WeatherDisplay:10.37,2013-02-15 01:41:00,
2013-02-15 02:46:00,50.9,48.1,30.12,SW,235,9.2,9.2,90,0.00,CLR,,0.00,WeatherDisplay:10.37,2013-02-15 01:46:00,
2013-02-15 02:51:00,51.0,48.5,30.12,SW,235,9.2,9.2,91,0.00,CLR,,0.00,WeatherDisplay:10.37,2013-02-15 01:51:00,
2013-02-15 02:56:00,51.0,48.5,30.12,SW,231,10.4,10.4,91,0.00,CLR,,0.00,WeatherDisplay:10.37,2013-02-15 01:56:00,
2013-02-15 03:01:00,51.1,48.6,30.12,SW,233,10.4,10.4,91,0.00,CLR,,0.00,WeatherDisplay:10.37,2013-02-15 02:01:00,
2013-02-15 03:06:00,51.1,48.6,30.12,SW,228,10.4,10.4,91,0.00,CLR,,0.00,WeatherDisplay:10.37,2013-02-15 02:06:00,
2013-02-15 03:11:00,51.1,48.6,30.11,SW,233,11.5,11.5,91,0.00,CLR,,0.00,WeatherDisplay:10.37,2013-02-15 02:11:00,
2013-02-15 03:16:00,51.0,48.2,30.11,SW,231,10.4,10.4,90,0.00,CLR,,0.00,WeatherDisplay:10.37,2013-02-15 02:16:00,
2013-02-15 03:21:00,51.0,48.5,30.11,SW,226,9.2,9.2,91,0.00,CLR,,0.00,WeatherDisplay:10.37,2013-02-15 02:21:00,
2013-02-15 03:26:00,50.9,48.4,30.11,SW,224,10.4,10.4,91,0.00,CLR,,0.00,WeatherDisplay:10.37,2013-02-15 02:26:00,
2013-02-15 03:31:00,51.0,48.5,30.10,SW,231,10.4,10.4,91,0.00,CLR,,0.00,WeatherDisplay:10.37,2013-02-15 02:31:00,
2013-02-15 03:36:00,51.0,48.2,30.10,SW,223,9.2,9.2,90,0.00,CLR,,0.00,WeatherDisplay:10.37,2013-02-15 02:36:00,
2013-02-15 03:41:00,51.0,48.2,30.10,SW,222,9.2,9.2,90,0.00,CLR,,0.00,WeatherDisplay:10.37,2013-02-15 02:41:00,
2013-02-15 03:46:00,51.0,48.2,30.10,SW,223,10.4,10.4,90,0.00,CLR,,0.00,WeatherDisplay:10.37,2013-02-15 02:46:00,
2013-02-15 03:51:00,51.0,48.2,30.10,SW,230,11.5,11.5,90,0.00,CLR,,0.00,WeatherDisplay:10.37,2013-02-15 02:51:00,
2013-02-15 03:56:00,51.1,48.3,30.10,SW,227,11.5,11.5,90,0.00,CLR,,0.00,WeatherDisplay:10.37,2013-02-15 02:56:00,
2013-02-15 04:01:00,51.0,48.5,30.09,SW,232,10.4,10.4,91,0.00,CLR,,0.00,WeatherDisplay:10.37,2013-02-15 03:01:00,
2013-02-15 04:06:00,50.9,48.4,30.09,SW,229,11.0,11.0,91,0.00,CLR,,0.00,WeatherDisplay:10.37,2013-02-15 03:06:00,
2013-02-15 04:11:00,50.9,48.4,30.09,SW,225,10.4,10.4,91,0.00,CLR,,0.00,WeatherDisplay:10.37,2013-02-15 03:11:00,
2013-02-15 04:16:00,50.8,48.3,30.09,WSW,238,10.4,10.4,91,0.00,CLR,,0.00,WeatherDisplay:10.37,2013-02-15 03:16:00,
2013-02-15 04:21:00,50.9,48.4,30.09,SW,235,10.4,10.4,91,0.00,CLR,,0.00,WeatherDisplay:10.37,2013-02-15 03:21:00,
2013-02-15 04:26:00,50.8,48.3,30.09,WSW,241,10.4,10.4,91,0.00,CLR,,0.00,WeatherDisplay:10.37,2013-02-15 03:26:00,
2013-02-15 04:31:00,50.8,48.3,30.09,WSW,249,9.2,9.2,91,0.00,CLR,,0.00,WeatherDisplay:10.37,2013-02-15 03:31:00,
2013-02-15 04:36:00,50.8,48.6,30.09,WSW,256,9.2,9.2,92,0.00,CLR,,0.00,WeatherDisplay:10.37,2013-02-15 03:36:00,
2013-02-15 04:41:00,50.8,48.6,30.09,WSW,256,9.2,9.2,92,0.00,CLR,,0.00,WeatherDisplay:10.37,2013-02-15 03:41:00,
2013-02-15 04:46:00,50.8,48.6,30.09,WSW,255,8.1,8.1,92,0.00,CLR,,0.00,WeatherDisplay:10.37,2013-02-15 03:46:00,
2013-02-15 04:51:00,50.9,48.7,30.09,SW,233,10.4,10.4,92,0.00,CLR,,0.00,WeatherDisplay:10.37,2013-02-15 03:51:00,
2013-02-15 04:56:00,50.9,48.7,30.08,WSW,249,10.4,10.4,92,0.00,CLR,,0.00,WeatherDisplay:10.37,2013-02-15 03:56:00,
2013-02-15 05:01:00,50.9,48.7,30.09,West,260,9.2,9.2,92,0.00,CLR,,0.00,WeatherDisplay:10.37,2013-02-15 04:01:00,
2013-02-15 05:06:00,50.9,48.9,30.09,West,260,9.2,9.2,93,0.00,CLR,,0.00,WeatherDisplay:10.37,2013-02-15 04:06:00,
2013-02-15 05:11:00,50.8,48.8,30.09,WSW,253,9.2,9.2,93,0.00,CLR,,0.00,WeatherDisplay:10.37,2013-02-15 04:11:00,
2013-02-15 05:16:00,50.8,48.8,30.09,WSW,247,8.1,8.1,93,0.00,CLR,,0.00,WeatherDisplay:10.37,2013-02-15 04:16:00,
2013-02-15 05:21:00,50.8,48.8,30.09,WSW,245,10.4,10.4,93,0.00,CLR,,0.00,WeatherDisplay:10.37,2013-02-15 04:21:00,
2013-02-15 05:26:00,50.7,48.7,30.09,WSW,256,9.2,9.2,93,0.00,CLR,,0.00,WeatherDisplay:10.37,2013-02-15 04:26:00,
2013-02-15 05:31:00,50.8,48.8,30.08,WSW,250,11.5,11.5,93,0.00,CLR,,0.00,WeatherDisplay:10.37,2013-02-15 04:31:00,
2013-02-15 05:36:00,50.8,48.8,30.08,WSW,245,9.2,9.2,93,0.00,CLR,,0.00,WeatherDisplay:10.37,2013-02-15 04:36:00,
2013-02-15 05:41:00,50.7,48.7,30.09,WSW,256,9.2,9.2,93,0.00,CLR,,0.00,WeatherDisplay:10.37,2013-02-15 04:41:00,
2013-02-15 05:46:00,50.7,48.7,30.08,WSW,239,9.0,9.0,93,0.00,CLR,,0.00,WeatherDisplay:10.37,2013-02-15 04:46:00,
2013-02-15 05:51:00,50.6,48.7,30.08,WSW,251,9.2,9.2,93,0.00,CLR,,0.00,WeatherDisplay:10.37,2013-02-15 04:51:00,
2013-02-15 05:56:00,50.8,48.8,30.08,WSW,245,10.0,10.0,93,0.00,CLR,,0.00,WeatherDisplay:10.37,2013-02-15 04:56:00,
2013-02-15 06:00:00,50.8,49.1,30.08,WSW,243,10.4,10.4,94,0.00,CLR,,0.00,WeatherDisplay:10.37,2013-02-15 05:00:00,
2013-02-15 06:05:00,50.8,49.1,30.08,WSW,244,9.2,9.2,94,0.00,CLR,,0.00,WeatherDisplay:10.37,2013-02-15 05:05:00,
2013-02-15 06:10:00,50.7,49.0,30.08,WSW,239,10.0,10.0,94,0.00,CLR,,0.00,WeatherDisplay:10.37,2013-02-15 05:10:00,
2013-02-15 06:15:00,50.8,49.1,30.08,SW,226,11.5,11.5,94,0.00,CLR,,0.00,WeatherDisplay:10.37,2013-02-15 05:15:00,
2013-02-15 06:20:00,50.9,49.2,30.08,WSW,239,11.5,11.5,94,0.00,CLR,,0.00,WeatherDisplay:10.37,2013-02-15 05:20:00,
2013-02-15 06:25:00,50.7,49.0,30.08,SW,231,9.2,9.2,94,0.00,CLR,,0.00,WeatherDisplay:10.37,2013-02-15 05:25:00,
2013-02-15 06:30:00,50.6,48.9,30.08,SW,234,10.4,10.4,94,0.00,CLR,,0.00,WeatherDisplay:10.37,2013-02-15 05:30:00,
2013-02-15 06:35:00,50.6,48.9,30.08,SW,232,10.4,10.4,94,0.00,CLR,,0.00,WeatherDisplay:10.37,2013-02-15 05:35:00,
2013-02-15 06:40:00,50.6,48.9,30.08,SW,228,9.2,9.2,94,0.00,CLR,,0.00,WeatherDisplay:10.37,2013-02-15 05:40:00,
2013-02-15 06:45:00,50.6,48.9,30.08,WSW,238,6.9,6.9,94,0.00,CLR,,0.00,WeatherDisplay:10.37,2013-02-15 05:45:00,
2013-02-15 06:50:00,50.7,49.0,30.08,WSW,241,9.2,9.2,94,0.00,CLR,,0.00,WeatherDisplay:10.37,2013-02-15 05:50:00,
2013-02-15 06:55:00,50.6,48.9,30.08,WSW,245,8.1,8.1,94,0.00,CLR,,0.00,WeatherDisplay:10.37,2013-02-15 05:55:00,
2013-02-15 07:00:00,50.6,48.9,30.08,WSW,237,8.1,8.1,94,0.00,CLR,,0.00,WeatherDisplay:10.37,2013-02-15 06:00:00,
2013-02-15 07:05:00,50.6,48.9,30.08,SW,233,7.0,7.0,94,0.00,CLR,,0.00,WeatherDisplay:10.37,2013-02-15 06:05:00,
2013-02-15 07:10:00,50.6,48.9,30.08,SW,233,6.9,6.9,94,0.00,CLR,,0.00,WeatherDisplay:10.37,2013-02-15 06:10:00,
2013-02-15 07:15:00,50.6,48.9,30.08,WSW,244,6.0,6.0,94,0.00,CLR,,0.00,WeatherDisplay:10.37,2013-02-15 06:15:00,
2013-02-15 07:20:00,50.7,49.0,30.08,WSW,257,8.1,8.1,94,0.00,CLR,,0.00,WeatherDisplay:10.37,2013-02-15 06:20:00,
2013-02-15 07:25:00,50.6,48.9,30.08,WSW,241,8.1,8.1,94,0.00,CLR,,0.00,WeatherDisplay:10.37,2013-02-15 06:25:00,
2013-02-15 07:30:00,50.6,48.9,30.08,WSW,251,9.2,9.2,94,0.00,CLR,,0.00,WeatherDisplay:10.37,2013-02-15 06:30:00,
2013-02-15 07:35:00,50.5,48.8,30.08,WSW,239,9.2,9.2,94,0.00,CLR,,0.00,WeatherDisplay:10.37,2013-02-15 06:35:00,
2013-02-15 07:40:00,50.4,48.7,30.08,WSW,243,10.4,10.4,94,0.00,CLR,,0.00,WeatherDisplay:10.37,2013-02-15 06:40:00,
2013-02-15 07:45:00,50.3,48.6,30.08,WSW,246,9.2,9.2,94,0.00,CLR,,0.00,WeatherDisplay:10.37,2013-02-15 06:45:00,
2013-02-15 07:50:00,50.3,48.6,30.08,WSW,253,10.4,10.4,94,0.00,CLR,,0.00,WeatherDisplay:10.37,2013-02-15 06:50:00,
2013-02-15 07:55:00,50.5,48.8,30.08,WSW,238,11.5,11.5,94,0.00,CLR,,0.00,WeatherDisplay:10.37,2013-02-15 06:55:00,
2013-02-15 08:00:00,50.5,48.8,30.08,SW,231,11.5,11.5,94,0.00,CLR,,0.00,WeatherDisplay:10.37,2013-02-15 07:00:00,
2013-02-15 08:05:00,50.5,48.8,30.08,WSW,249,10.4,10.4,94,0.00,CLR,,0.00,WeatherDisplay:10.37,2013-02-15 07:05:00,
2013-02-15 08:10:00,50.6,48.9,30.08,WSW,249,9.2,9.2,94,0.00,CLR,,0.00,WeatherDisplay:10.37,2013-02-15 07:10:00,
2013-02-15 08:15:00,50.6,48.9,30.08,West,261,10.4,10.4,94,0.00,CLR,,0.00,WeatherDisplay:10.37,2013-02-15 07:15:00,
2013-02-15 08:20:00,50.7,49.0,30.08,WSW,253,11.0,11.0,94,0.00,CLR,,0.00,WeatherDisplay:10.37,2013-02-15 07:20:00,
2013-02-15 08:25:00,50.8,48.8,30.08,WSW,245,11.5,11.5,93,0.00,CLR,,0.00,WeatherDisplay:10.37,2013-02-15 07:25:00,
2013-02-15 08:30:00,50.8,48.8,30.08,West,265,11.5,11.5,93,0.00,CLR,,0.00,WeatherDisplay:10.37,2013-02-15 07:30:00,
2013-02-15 08:35:00,50.8,48.8,30.08,WSW,251,11.0,11.0,93,0.00,CLR,,0.00,WeatherDisplay:10.37,2013-02-15 07:35:00,
2013-02-15 08:40:00,50.9,48.9,30.09,West,262,10.4,10.4,93,0.00,CLR,,0.00,WeatherDisplay:10.37,2013-02-15 07:40:00,
2013-02-15 08:45:00,50.9,48.9,30.09,West,265,11.5,11.5,93,0.00,CLR,,0.00,WeatherDisplay:10.37,2013-02-15 07:45:00,
2013-02-15 08:50:00,51.1,49.1,30.09,WSW,240,11.5,11.5,93,0.00,CLR,,0.00,WeatherDisplay:10.37,2013-02-15 07:50:00,
2013-02-15 08:55:00,51.3,49.3,30.09,West,268,13.8,13.8,93,0.00,CLR,,0.00,WeatherDisplay:10.37,2013-02-15 07:55:00,
2013-02-15 09:00:00,51.5,49.5,30.09,WSW,256,13.8,13.8,93,0.00,CLR,,0.00,WeatherDisplay:10.37,2013-02-15 08:00:00,
2013-02-15 09:05:00,51.8,49.5,30.09,West,278,11.5,11.5,92,0.00,CLR,,0.00,WeatherDisplay:10.37,2013-02-15 08:05:00,
2013-02-15 09:10:00,51.8,49.5,30.09,WSW,249,15.0,15.0,92,0.00,CLR,,0.00,WeatherDisplay:10.37,2013-02-15 08:10:00,
2013-02-15 09:15:00,51.9,49.6,30.09,SW,218,11.5,11.5,92,0.00,CLR,,0.00,WeatherDisplay:10.37,2013-02-15 08:15:00,
2013-02-15 09:20:00,52.1,49.8,30.09,West,263,11.5,11.5,92,0.00,CLR,,0.00,WeatherDisplay:10.37,2013-02-15 08:20:00,
2013-02-15 09:25:00,52.3,50.0,30.09,WSW,251,11.0,11.0,92,0.00,CLR,,0.00,WeatherDisplay:10.37,2013-02-15 08:25:00,
2013-02-15 09:30:00,52.5,49.9,30.09,West,272,13.8,13.8,91,0.00,CLR,,0.00,WeatherDisplay:10.37,2013-02-15 08:30:00,
2013-02-15 09:35:00,52.6,50.0,30.09,West,264,12.0,12.0,91,0.00,CLR,,0.00,WeatherDisplay:10.37,2013-02-15 08:35:00,
2013-02-15 09:40:00,52.8,50.2,30.09,West,263,12.7,12.7,91,0.00,CLR,,0.00,WeatherDisplay:10.37,2013-02-15 08:40:00,
2013-02-15 09:45:00,53.0,50.4,30.09,WSW,252,13.8,13.8,91,0.00,CLR,,0.00,WeatherDisplay:10.37,2013-02-15 08:45:00,
2013-02-15 09:50:00,53.2,50.6,30.09,WSW,239,12.7,12.7,91,0.00,CLR,,0.00,WeatherDisplay:10.37,2013-02-15 08:50:00,
2013-02-15 09:55:00,53.4,50.8,30.09,WNW,291,12.7,12.7,91,0.00,CLR,,0.00,WeatherDisplay:10.37,2013-02-15 08:55:00,
2013-02-15 10:00:00,53.6,51.0,30.09,WSW,249,13.8,13.8,91,0.00,CLR,,0.00,WeatherDisplay:10.37,2013-02-15 09:00:00,
2013-02-15 10:05:00,53.8,51.2,30.09,West,265,13.8,13.8,91,0.00,CLR,,0.00,WeatherDisplay:10.37,2013-02-15 09:05:00,
2013-02-15 10:10:00,53.7,50.8,30.09,WSW,239,18.0,18.0,90,0.00,CLR,,0.00,WeatherDisplay:10.37,2013-02-15 09:10:00,
2013-02-15 10:15:00,53.9,51.0,30.09,WSW,241,16.1,16.1,90,0.00,CLR,,0.00,WeatherDisplay:10.37,2013-02-15 09:15:00,
2013-02-15 10:20:00,53.9,51.0,30.09,SW,226,13.8,13.8,90,0.00,CLR,,0.00,WeatherDisplay:10.37,2013-02-15 09:20:00,
2013-02-15 10:25:00,54.1,50.9,30.09,WSW,250,13.8,13.8,89,0.00,CLR,,0.00,WeatherDisplay:10.37,2013-02-15 09:25:00,
2013-02-15 10:30:00,54.3,51.1,30.09,WSW,240,18.4,18.4,89,0.00,CLR,,0.00,WeatherDisplay:10.37,2013-02-15 09:30:00,
2013-02-15 10:35:00,54.3,50.8,30.09,WSW,247,17.3,17.3,88,0.00,CLR,,0.00,WeatherDisplay:10.37,2013-02-15 09:35:00,
2013-02-15 10:40:00,54.8,51.3,30.09,WSW,239,15.0,15.0,88,0.00,CLR,,0.00,WeatherDisplay:10.37,2013-02-15 09:40:00,
2013-02-15 10:45:00,54.8,51.0,30.09,WSW,239,16.1,16.1,87,0.00,CLR,,0.00,WeatherDisplay:10.37,2013-02-15 09:45:00,
2013-02-15 10:50:00,54.6,50.5,30.08,WSW,243,16.1,16.1,86,0.00,CLR,,0.00,WeatherDisplay:10.37,2013-02-15 09:50:00,
2013-02-15 10:55:00,54.5,50.4,30.08,WSW,256,16.1,16.1,86,0.00,CLR,,0.00,WeatherDisplay:10.37,2013-02-15 09:55:00,
2013-02-15 11:00:00,54.8,50.1,30.09,WSW,257,15.0,15.0,84,0.00,CLR,,0.00,WeatherDisplay:10.37,2013-02-15 10:00:00,
2013-02-15 11:05:00,55.1,50.4,30.09,WSW,237,19.6,19.6,84,0.00,CLR,,0.00,WeatherDisplay:10.37,2013-02-15 10:05:00,
2013-02-15 11:10:00,55.4,50.6,30.09,WSW,251,16.1,16.1,84,0.00,CLR,,0.00,WeatherDisplay:10.37,2013-02-15 10:10:00,
2013-02-15 11:15:00,55.2,50.1,30.08,WSW,241,19.6,19.6,83,0.00,CLR,,0.00,WeatherDisplay:10.37,2013-02-15 10:15:00,
2013-02-15 11:20:00,55.5,50.7,30.08,SW,221,11.5,11.5,84,0.00,CLR,,0.00,WeatherDisplay:10.37,2013-02-15 10:20:00,
2013-02-15 11:25:00,55.8,50.7,30.08,WSW,256,11.5,11.7,83,0.00,CLR,,0.00,WeatherDisplay:10.37,2013-02-15 10:25:00,
2013-02-15 11:30:00,55.9,50.8,30.08,SW,224,12.7,12.7,83,0.00,CLR,,0.00,WeatherDisplay:10.37,2013-02-15 10:30:00,
2013-02-15 11:35:00,55.9,50.2,30.08,West,260,17.3,17.3,81,0.00,CLR,,0.00,WeatherDisplay:10.37,2013-02-15 10:35:00,
2013-02-15 11:40:00,56.6,49.8,30.08,NW,315,11.5,11.5,78,0.00,CLR,,0.00,WeatherDisplay:10.37,2013-02-15 10:40:00,
2013-02-15 11:45:00,56.9,48.7,30.08,WSW,242,15.0,15.0,74,0.00,CLR,,0.00,WeatherDisplay:10.37,2013-02-15 10:45:00,
2013-02-15 11:50:00,57.2,49.7,30.08,West,274,16.1,16.1,76,0.00,CLR,,0.00,WeatherDisplay:10.37,2013-02-15 10:50:00,
2013-02-15 11:55:00,57.0,49.5,30.08,West,279,15.0,15.0,76,0.00,CLR,,0.00,WeatherDisplay:10.37,2013-02-15 10:55:00,
2013-02-15 12:00:00,56.8,49.7,30.08,West,275,16.1,16.1,77,0.00,CLR,,0.00,WeatherDisplay:10.37,2013-02-15 11:00:00,
2013-02-15 12:05:00,57.2,47.5,30.08,West,272,16.1,16.1,70,0.00,CLR,,0.00,WeatherDisplay:10.37,2013-02-15 11:05:00,
2013-02-15 12:10:00,57.4,47.7,30.08,WNW,290,13.0,13.0,70,0.00,CLR,,0.00,WeatherDisplay:10.37,2013-02-15 11:10:00,
2013-02-15 12:15:00,56.8,46.0,30.08,SSW,206,13.8,13.8,67,0.00,CLR,,0.00,WeatherDisplay:10.37,2013-02-15 11:15:00,
2013-02-15 12:20:00,56.6,46.2,30.08,WSW,247,17.3,17.3,68,0.00,CLR,,0.00,WeatherDisplay:10.37,2013-02-15 11:20:00,
2013-02-15 12:25:00,57.3,45.6,30.08,WNW,295,18.4,18.4,65,0.00,CLR,,0.00,WeatherDisplay:10.37,2013-02-15 11:25:00,
2013-02-15 12:30:00,58.0,45.9,30.08,WSW,246,21.9,21.9,64,0.00,CLR,,0.00,WeatherDisplay:10.37,2013-02-15 11:30:00,
2013-02-15 12:35:00,58.4,45.8,30.07,West,279,17.0,17.0,63,0.00,CLR,,0.00,WeatherDisplay:10.37,2013-02-15 11:35:00,
2013-02-15 12:40:00,58.4,44.1,30.07,NW,320,16.1,16.1,59,0.00,CLR,,0.00,WeatherDisplay:10.37,2013-02-15 11:40:00,
2013-02-15 12:45:00,58.6,44.3,30.07,West,280,18.4,18.4,59,0.00,CLR,,0.00,WeatherDisplay:10.37,2013-02-15 11:45:00,
2013-02-15 12:50:00,58.8,44.5,30.07,WSW,251,19.6,19.6,59,0.00,CLR,,0.00,WeatherDisplay:10.37,2013-02-15 11:50:00,
2013-02-15 12:55:00,59.3,44.5,30.07,NW,310,17.3,17.3,58,0.00,CLR,,0.00,WeatherDisplay:10.37,2013-02-15 11:55:00,
2013-02-15 13:00:00,59.5,44.7,30.07,West,278,18.4,18.4,58,0.00,CLR,,0.00,WeatherDisplay:10.37,2013-02-15 12:00:00,
2013-02-15 13:05:00,59.5,44.7,30.06,NW,320,15.0,15.0,58,0.00,CLR,,0.00,WeatherDisplay:10.37,2013-02-15 12:05:00,
2013-02-15 13:10:00,59.5,44.2,30.07,SW,220,12.7,12.7,57,0.00,CLR,,0.00,WeatherDisplay:10.37,2013-02-15 12:10:00,
2013-02-15 13:15:00,59.8,44.1,30.06,WNW,294,16.1,16.1,56,0.00,CLR,,0.00,WeatherDisplay:10.37,2013-02-15 12:15:00,
2013-02-15 13:20:00,60.1,44.3,30.06,NNW,337,13.8,13.8,56,0.00,CLR,,0.00,WeatherDisplay:10.37,2013-02-15 12:20:00,
2013-02-15 13:25:00,59.7,43.5,30.07,NNW,338,10.4,10.4,55,0.00,CLR,,0.00,WeatherDisplay:10.37,2013-02-15 12:25:00,
2013-02-15 13:30:00,59.1,43.9,30.07,NW,305,10.4,10.4,57,0.00,CLR,,0.00,WeatherDisplay:10.37,2013-02-15 12:30:00,
2013-02-15 13:35:00,58.8,44.0,30.07,NW,322,10.4,10.4,58,0.00,CLR,,0.00,WeatherDisplay:10.37,2013-02-15 12:35:00,
2013-02-15 13:40:00,58.8,43.6,30.06,North,354,11.5,11.5,57,0.00,CLR,,0.00,WeatherDisplay:10.37,2013-02-15 12:40:00,
2013-02-15 13:45:00,58.9,43.2,30.06,NNW,327,11.5,11.5,56,0.00,CLR,,0.00,WeatherDisplay:10.37,2013-02-15 12:45:00,
2013-02-15 13:50:00,58.9,43.7,30.06,North,4,9.2,9.2,57,0.00,CLR,,0.00,WeatherDisplay:10.37,2013-02-15 12:50:00,
2013-02-15 13:55:00,59.2,44.4,30.06,NW,326,3.5,3.5,58,0.00,CLR,,0.00,WeatherDisplay:10.37,2013-02-15 12:55:00,
2013-02-15 14:00:00,59.8,45.4,30.06,North,349,5.8,5.8,59,0.00,CLR,,0.00,WeatherDisplay:10.37,2013-02-15 13:00:00,
2013-02-15 14:05:00,59.8,45.0,30.06,North,359,8.1,8.1,58,0.00,CLR,,0.00,WeatherDisplay:10.37,2013-02-15 13:05:00,
2013-02-15 14:10:00,59.6,45.2,30.06,ENE,75,3.5,3.5,59,0.00,CLR,,0.00,WeatherDisplay:10.37,2013-02-15 13:10:00,
2013-02-15 14:15:00,60.2,47.1,30.06,NE,54,13.8,13.8,62,0.00,CLR,,0.00,WeatherDisplay:10.37,2013-02-15 13:15:00,
2013-02-15 14:20:00,58.6,49.2,30.05,East,95,12.7,12.7,71,0.00,CLR,,0.00,WeatherDisplay:10.37,2013-02-15 13:20:00,
2013-02-15 14:25:00,57.6,49.4,30.05,East,80,16.1,16.1,74,0.00,CLR,,0.00,WeatherDisplay:10.37,2013-02-15 13:25:00,
2013-02-15 14:30:00,57.9,49.7,30.05,ENE,72,15.0,15.0,74,0.00,CLR,,0.00,WeatherDisplay:10.37,2013-02-15 13:30:00,
2013-02-15 14:35:00,57.6,47.9,30.05,ENE,63,13.8,13.8,70,0.00,CLR,,0.00,WeatherDisplay:10.37,2013-02-15 13:35:00,
2013-02-15 14:40:00,58.1,48.4,30.05,NE,41,16.1,16.1,70,0.00,CLR,,0.00,WeatherDisplay:10.37,2013-02-15 13:40:00,
2013-02-15 14:45:00,57.3,47.6,30.06,ENE,58,17.3,17.3,70,0.00,CLR,,0.00,WeatherDisplay:10.37,2013-02-15 13:45:00,
2013-02-15 14:50:00,56.9,48.0,30.06,East,85,15.0,15.0,72,0.00,CLR,,0.00,WeatherDisplay:10.37,2013-02-15 13:50:00,
2013-02-15 14:55:00,56.4,48.2,30.05,ENE,75,11.5,11.5,74,0.00,CLR,,0.00,WeatherDisplay:10.37,2013-02-15 13:55:00,
2013-02-15 15:00:00,56.3,48.1,30.06,ENE,60,13.8,13.8,74,0.00,CLR,,0.00,WeatherDisplay:10.37,2013-02-15 14:00:00,
2013-02-15 15:05:00,56.2,48.0,30.06,East,85,15.0,15.0,74,0.00,CLR,,0.00,WeatherDisplay:10.37,2013-02-15 14:05:00,
2013-02-15 15:10:00,56.0,47.8,30.06,ESE,104,12.0,12.0,74,0.00,CLR,,0.00,WeatherDisplay:10.37,2013-02-15 14:10:00,
2013-02-15 15:15:00,56.1,47.9,30.06,NE,36,16.1,16.1,74,0.00,CLR,,0.00,WeatherDisplay:10.37,2013-02-15 14:15:00,
2013-02-15 15:20:00,55.9,47.7,30.06,East,82,17.3,17.3,74,0.00,CLR,,0.00,WeatherDisplay:10.37,2013-02-15 14:20:00,
2013-02-15 15:25:00,55.8,48.0,30.06,East,97,11.5,11.5,75,0.00,CLR,,0.00,WeatherDisplay:10.37,2013-02-15 14:25:00,
2013-02-15 15:30:00,55.6,47.4,30.06,ESE,102,12.7,12.7,74,0.00,CLR,,0.00,WeatherDisplay:10.37,2013-02-15 14:30:00,
2013-02-15 15:35:00,55.4,47.2,30.05,ENE,77,15.0,15.0,74,0.00,CLR,,0.00,WeatherDisplay:10.37,2013-02-15 14:35:00,
2013-02-15 15:40:00,55.3,47.5,30.06,ESE,123,12.7,12.7,75,0.00,CLR,,0.00,WeatherDisplay:10.37,2013-02-15 14:40:00,
2013-02-15 15:45:00,55.3,47.5,30.06,NE,41,10.4,10.4,75,0.00,CLR,,0.00,WeatherDisplay:10.37,2013-02-15 14:45:00,
2013-02-15 15:50:00,55.4,47.6,30.06,ENE,70,11.5,11.5,75,0.00,CLR,,0.00,WeatherDisplay:10.37,2013-02-15 14:50:00,
2013-02-15 15:55:00,55.4,47.2,30.06,NE,42,11.5,11.5,74,0.00,CLR,,0.00,WeatherDisplay:10.37,2013-02-15 14:55:00,
2013-02-15 16:00:00,55.4,46.9,30.06,NE,55,11.5,11.5,73,0.00,CLR,,0.00,WeatherDisplay:10.37,2013-02-15 15:00:00,
2013-02-15 16:05:00,55.5,47.0,30.06,NE,49,8.1,8.1,73,0.00,CLR,,0.00,WeatherDisplay:10.37,2013-02-15 15:05:00,
2013-02-15 16:10:00,55.7,47.2,30.06,ENE,65,10.4,10.4,73,0.00,CLR,,0.00,WeatherDisplay:10.37,2013-02-15 15:10:00,
2013-02-15 16:15:00,55.6,46.3,30.06,ENE,63,11.5,11.5,71,0.00,CLR,,0.00,WeatherDisplay:10.37,2013-02-15 15:15:00,
2013-02-15 16:20:00,55.6,46.0,30.07,NE,56,12.0,12.0,70,0.00,CLR,,0.00,WeatherDisplay:10.37,2013-02-15 15:20:00,
2013-02-15 16:25:00,55.6,46.0,30.07,NNE,17,9.2,9.2,70,0.00,CLR,,0.00,WeatherDisplay:10.37,2013-02-15 15:25:00,
2013-02-15 16:30:00,55.9,45.9,30.07,NE,49,6.9,6.9,69,0.00,CLR,,0.00,WeatherDisplay:10.37,2013-02-15 15:30:00,
2013-02-15 16:35:00,56.0,46.0,30.07,NE,45,8.0,8.0,69,0.00,CLR,,0.00,WeatherDisplay:10.37,2013-02-15 15:35:00,
2013-02-15 16:40:00,55.9,46.3,30.07,NE,40,6.9,6.9,70,0.00,CLR,,0.00,WeatherDisplay:10.37,2013-02-15 15:40:00,
2013-02-15 16:45:00,55.6,46.3,30.07,NE,55,11.5,11.5,71,0.00,CLR,,0.00,WeatherDisplay:10.37,2013-02-15 15:45:00,
2013-02-15 16:50:00,55.3,46.8,30.07,ENE,78,16.1,16.1,73,0.00,CLR,,0.00,WeatherDisplay:10.37,2013-02-15 15:50:00,
2013-02-15 16:55:00,54.4,47.0,30.07,NE,48,15.0,15.0,76,0.00,CLR,,0.00,WeatherDisplay:10.37,2013-02-15 15:55:00,
2013-02-15 17:00:00,53.9,46.9,30.07,ENE,66,15.0,15.0,77,0.00,CLR,,0.00,WeatherDisplay:10.37,2013-02-15 16:00:00,
2013-02-15 17:05:00,53.7,46.7,30.07,NE,44,15.0,15.0,77,0.00,CLR,,0.00,WeatherDisplay:10.37,2013-02-15 16:05:00,
2013-02-15 17:10:00,53.5,46.5,30.07,East,79,16.1,16.1,77,0.00,CLR,,0.00,WeatherDisplay:10.37,2013-02-15 16:10:00,
2013-02-15 17:15:00,53.4,46.4,30.07,NE,56,19.6,19.6,77,0.00,CLR,,0.00,WeatherDisplay:10.37,2013-02-15 16:15:00,
2013-02-15 17:20:00,53.2,46.5,30.07,ENE,66,16.1,16.1,78,0.00,CLR,,0.00,WeatherDisplay:10.37,2013-02-15 16:20:00,
2013-02-15 17:25:00,53.3,46.6,30.07,ENE,72,16.1,16.1,78,0.00,CLR,,0.00,WeatherDisplay:10.37,2013-02-15 16:25:00,
2013-02-15 17:30:00,53.1,46.4,30.07,NE,53,17.3,17.3,78,0.00,CLR,,0.00,WeatherDisplay:10.37,2013-02-15 16:30:00,
2013-02-15 17:35:00,52.9,46.2,30.07,ENE,64,15.0,15.0,78,0.00,CLR,,0.00,WeatherDisplay:10.37,2013-02-15 16:35:00,
2013-02-15 17:40:00,52.9,46.2,30.07,ENE,69,16.1,16.1,78,0.00,CLR,,0.00,WeatherDisplay:10.37,2013-02-15 16:40:00,
2013-02-15 17:45:00,52.8,46.1,30.07,ENE,65,15.0,15.0,78,0.00,CLR,,0.00,WeatherDisplay:10.37,2013-02-15 16:45:00,
2013-02-15 17:50:00,52.7,46.0,30.08,ENE,75,12.7,12.7,78,0.00,CLR,,0.00,WeatherDisplay:10.37,2013-02-15 16:50:00,
2013-02-15 17:55:00,52.6,45.9,30.07,ENE,72,11.5,11.5,78,0.00,CLR,,0.00,WeatherDisplay:10.37,2013-02-15 16:55:00,
2013-02-15 18:00:00,52.5,45.5,30.08,NE,48,17.3,17.3,77,0.00,CLR,,0.00,WeatherDisplay:10.37,2013-02-15 17:00:00,
2013-02-15 18:05:00,52.4,45.7,30.08,NE,54,12.7,12.7,78,0.00,CLR,,0.00,WeatherDisplay:10.37,2013-02-15 17:05:00,
2013-02-15 18:10:00,52.3,45.6,30.08,ENE,64,18.4,18.4,78,0.00,CLR,,0.00,WeatherDisplay:10.37,2013-02-15 17:10:00,
2013-02-15 18:15:00,52.2,45.2,30.08,ENE,71,11.5,11.5,77,0.00,CLR,,0.00,WeatherDisplay:10.37,2013-02-15 17:15:00,
2013-02-15 18:20:00,52.0,45.0,30.08,ENE,76,15.0,15.0,77,0.00,CLR,,0.00,WeatherDisplay:10.37,2013-02-15 17:20:00,
2013-02-15 18:25:00,52.0,44.7,30.08,ENE,62,16.0,16.0,76,0.00,CLR,,0.00,WeatherDisplay:10.37,2013-02-15 17:25:00,
2013-02-15 18:30:00,52.1,44.4,30.09,ENE,75,13.8,13.8,75,0.00,CLR,,0.00,WeatherDisplay:10.37,2013-02-15 17:30:00,
2013-02-15 18:35:00,52.0,44.3,30.09,NE,35,11.5,11.5,75,0.00,CLR,,0.00,WeatherDisplay:10.37,2013-02-15 17:35:00,
2013-02-15 18:40:00,52.0,44.7,30.09,East,84,13.8,13.8,76,0.00,CLR,,0.00,WeatherDisplay:10.37,2013-02-15 17:40:00,
2013-02-15 18:45:00,51.9,44.6,30.09,NE,52,13.8,13.8,76,0.00,CLR,,0.00,WeatherDisplay:10.37,2013-02-15 17:45:00,
2013-02-15 18:50:00,51.9,44.6,30.09,ENE,60,16.1,16.1,76,0.00,CLR,,0.00,WeatherDisplay:10.37,2013-02-15 17:50:00,
2013-02-15 18:55:00,51.9,44.2,30.09,NE,54,13.8,13.8,75,0.00,CLR,,0.00,WeatherDisplay:10.37,2013-02-15 17:55:00,
2013-02-15 19:00:00,51.7,44.0,30.10,East,79,13.8,13.8,75,0.00,CLR,,0.00,WeatherDisplay:10.37,2013-02-15 18:00:00,
2013-02-15 19:05:00,51.7,44.0,30.10,ENE,66,13.8,13.8,75,0.00,CLR,,0.00,WeatherDisplay:10.37,2013-02-15 18:05:00,
2013-02-15 19:10:00,51.6,43.9,30.10,ENE,71,13.8,13.8,75,0.00,CLR,,0.00,WeatherDisplay:10.37,2013-02-15 18:10:00,
2013-02-15 19:15:00,51.6,43.9,30.10,East,97,12.7,12.7,75,0.00,CLR,,0.00,WeatherDisplay:10.37,2013-02-15 18:15:00,
2013-02-15 19:20:00,51.4,43.7,30.10,ENE,70,11.5,11.5,75,0.00,CLR,,0.00,WeatherDisplay:10.37,2013-02-15 18:20:00,
2013-02-15 19:25:00,51.4,43.7,30.10,ENE,75,15.0,15.0,75,0.00,CLR,,0.00,WeatherDisplay:10.37,2013-02-15 18:25:00,
2013-02-15 19:30:00,51.4,43.7,30.11,ENE,66,11.5,11.5,75,0.00,CLR,,0.00,WeatherDisplay:10.37,2013-02-15 18:30:00,
2013-02-15 19:35:00,51.3,43.3,30.10,ENE,72,15.0,15.0,74,0.00,CLR,,0.00,WeatherDisplay:10.37,2013-02-15 18:35:00,
2013-02-15 19:40:00,51.3,43.3,30.10,NE,52,13.8,13.8,74,0.00,CLR,,0.00,WeatherDisplay:10.37,2013-02-15 18:40:00,
2013-02-15 19:45:00,51.3,43.3,30.11,ENE,62,15.0,15.0,74,0.00,CLR,,0.00,WeatherDisplay:10.37,2013-02-15 18:45:00,
2013-02-15 19:50:00,51.3,43.3,30.11,ENE,68,13.8,13.8,74,0.00,CLR,,0.00,WeatherDisplay:10.37,2013-02-15 18:50:00,
2013-02-15 19:55:00,51.3,43.3,30.11,ENE,70,11.5,11.5,74,0.00,CLR,,0.00,WeatherDisplay:10.37,2013-02-15 18:55:00,
2013-02-15 20:00:00,51.3,43.3,30.11,NE,56,17.3,17.3,74,0.00,CLR,,0.00,WeatherDisplay:10.37,2013-02-15 19:00:00,
2013-02-15 20:05:00,51.3,43.3,30.11,ENE,58,15.0,15.0,74,0.00,CLR,,0.00,WeatherDisplay:10.37,2013-02-15 19:05:00,
2013-02-15 20:10:00,51.3,43.3,30.11,ENE,66,15.0,15.0,74,0.00,CLR,,0.00,WeatherDisplay:10.37,2013-02-15 19:10:00,
2013-02-15 20:15:00,51.3,43.3,30.11,ENE,70,12.7,12.7,74,0.00,CLR,,0.00,WeatherDisplay:10.37,2013-02-15 19:15:00,
2013-02-15 20:20:00,51.1,43.1,30.11,NE,46,13.8,13.8,74,0.00,CLR,,0.00,WeatherDisplay:10.37,2013-02-15 19:20:00,
2013-02-15 20:25:00,51.0,43.4,30.12,NE,56,16.1,16.1,75,0.00,CLR,,0.00,WeatherDisplay:10.37,2013-02-15 19:25:00,
2013-02-15 20:30:00,51.0,43.4,30.12,NE,54,12.0,12.0,75,0.00,CLR,,0.00,WeatherDisplay:10.37,2013-02-15 19:30:00,
2013-02-15 20:35:00,50.9,43.3,30.12,NE,43,15.0,15.0,75,0.00,CLR,,0.00,WeatherDisplay:10.37,2013-02-15 19:35:00,
2013-02-15 20:40:00,50.8,43.5,30.12,ENE,65,15.0,15.0,76,0.00,CLR,,0.00,WeatherDisplay:10.37,2013-02-15 19:40:00,
2013-02-15 20:45:00,50.7,43.4,30.12,ENE,67,12.7,12.7,76,0.00,CLR,,0.00,WeatherDisplay:10.37,2013-02-15 19:45:00,
2013-02-15 20:50:00,50.7,43.4,30.12,NNE,33,11.5,11.5,76,0.00,CLR,,0.00,WeatherDisplay:10.37,2013-02-15 19:50:00,
2013-02-15 20:55:00,50.7,43.8,30.12,ENE,61,13.8,13.8,77,0.00,CLR,,0.00,WeatherDisplay:10.37,2013-02-15 19:55:00,
2013-02-15 21:00:00,50.6,43.7,30.13,NE,55,11.0,11.0,77,0.00,CLR,,0.00,WeatherDisplay:10.37,2013-02-15 20:00:00,
2013-02-15 21:05:00,50.5,43.6,30.13,ENE,62,13.0,13.0,77,0.00,CLR,,0.00,WeatherDisplay:10.37,2013-02-15 20:05:00,
2013-02-15 21:10:00,50.6,44.0,30.13,ENE,60,9.2,9.2,78,0.00,CLR,,0.00,WeatherDisplay:10.37,2013-02-15 20:10:00,
2013-02-15 21:15:00,50.5,43.6,30.13,ENE,66,15.0,15.0,77,0.00,CLR,,0.00,WeatherDisplay:10.37,2013-02-15 20:15:00,
2013-02-15 21:20:00,50.5,43.6,30.13,NE,45,11.5,11.5,77,0.00,CLR,,0.00,WeatherDisplay:10.37,2013-02-15 20:20:00,
2013-02-15 21:25:00,50.5,43.6,30.14,ENE,71,13.8,13.8,77,0.00,CLR,,0.00,WeatherDisplay:10.37,2013-02-15 20:25:00,
2013-02-15 21:30:00,50.4,43.5,30.14,NE,40,13.8,13.8,77,0.00,CLR,,0.00,WeatherDisplay:10.37,2013-02-15 20:30:00,
2013-02-15 21:35:00,50.4,43.8,30.14,ENE,58,12.7,12.7,78,0.00,CLR,,0.00,WeatherDisplay:10.37,2013-02-15 20:35:00,
2013-02-15 21:40:00,50.4,43.8,30.14,East,80,13.8,13.8,78,0.00,CLR,,0.00,WeatherDisplay:10.37,2013-02-15 20:40:00,
2013-02-15 21:45:00,50.5,43.6,30.14,ENE,68,15.0,15.0,77,0.00,CLR,,0.00,WeatherDisplay:10.37,2013-02-15 20:45:00,
2013-02-15 21:50:00,50.6,43.7,30.14,East,84,12.7,12.7,77,0.00,CLR,,0.00,WeatherDisplay:10.37,2013-02-15 20:50:00,
2013-02-15 21:55:00,50.6,43.7,30.14,NE,46,12.7,12.7,77,0.00,CLR,,0.00,WeatherDisplay:10.37,2013-02-15 20:55:00,
2013-02-15 22:00:00,50.6,43.7,30.15,ENE,66,12.7,12.7,77,0.00,CLR,,0.00,WeatherDisplay:10.37,2013-02-15 21:00:00,
2013-02-15 22:05:00,50.6,43.7,30.15,NE,48,11.5,11.5,77,0.00,CLR,,0.00,WeatherDisplay:10.37,2013-02-15 21:05:00,
2013-02-15 22:10:00,50.4,43.5,30.15,ENE,66,11.5,11.5,77,0.00,CLR,,0.00,WeatherDisplay:10.37,2013-02-15 21:10:00,
2013-02-15 22:15:00,50.6,43.7,30.15,ENE,58,11.5,11.5,77,0.00,CLR,,0.00,WeatherDisplay:10.37,2013-02-15 21:15:00,
2013-02-15 22:20:00,50.7,43.8,30.15,ENE,73,11.5,11.5,77,0.00,CLR,,0.00,WeatherDisplay:10.37,2013-02-15 21:20:00,
2013-02-15 22:25:00,50.6,43.7,30.14,NE,52,12.7,12.7,77,0.00,CLR,,0.00,WeatherDisplay:10.37,2013-02-15 21:25:00,
2013-02-15 22:30:00,50.7,43.8,30.14,ENE,57,11.5,11.5,77,0.00,CLR,,0.00,WeatherDisplay:10.37,2013-02-15 21:30:00,
2013-02-15 22:35:00,50.7,43.8,30.14,NE,51,11.5,11.5,77,0.00,CLR,,0.00,WeatherDisplay:10.37,2013-02-15 21:35:00,
2013-02-15 22:40:00,50.7,43.8,30.14,ENE,70,11.5,11.5,77,0.00,CLR,,0.00,WeatherDisplay:10.37,2013-02-15 21:40:00,
2013-02-15 22:45:00,50.5,43.9,30.14,ENE,70,10.4,10.4,78,0.00,CLR,,0.00,WeatherDisplay:10.37,2013-02-15 21:45:00,
2013-02-15 22:50:00,50.5,43.9,30.14,NE,54,11.5,11.5,78,0.00,CLR,,0.00,WeatherDisplay:10.37,2013-02-15 21:50:00,
2013-02-15 22:55:00,50.6,44.0,30.14,NE,54,11.5,11.5,78,0.00,CLR,,0.00,WeatherDisplay:10.37,2013-02-15 21:55:00,
2013-02-15 23:00:00,50.5,43.9,30.14,ENE,68,10.4,10.4,78,0.00,CLR,,0.00,WeatherDisplay:10.37,2013-02-15 22:00:00,
2013-02-15 23:05:00,50.5,43.9,30.14,ENE,70,10.4,10.4,78,0.00,CLR,,0.00,WeatherDisplay:10.37,2013-02-15 22:05:00,
2013-02-15 23:10:00,50.4,43.8,30.14,ENE,63,10.4,10.4,78,0.00,CLR,,0.00,WeatherDisplay:10.37,2013-02-15 22:10:00,
2013-02-15 23:15:00,50.3,43.7,30.14,ENE,59,10.4,10.4,78,0.00,CLR,,0.00,WeatherDisplay:10.37,2013-02-15 22:15:00,
2013-02-15 23:20:00,50.3,44.0,30.14,ENE,62,10.4,10.4,79,0.00,CLR,,0.00,WeatherDisplay:10.37,2013-02-15 22:20:00,
2013-02-15 23:25:00,50.2,43.9,30.14,ENE,70,10.4,10.4,79,0.00,CLR,,0.00,WeatherDisplay:10.37,2013-02-15 22:25:00,
2013-02-15 23:30:00,50.2,43.9,30.14,ENE,69,11.5,11.5,79,0.00,CLR,,0.00,WeatherDisplay:10.37,2013-02-15 22:30:00,
2013-02-15 23:35:00,50.2,43.9,30.14,NNE,14,10.4,10.4,79,0.00,CLR,,0.00,WeatherDisplay:10.37,2013-02-15 22:35:00,
2013-02-15 23:40:00,50.3,44.0,30.14,East,80,10.4,10.4,79,0.00,CLR,,0.00,WeatherDisplay:10.37,2013-02-15 22:40:00,
2013-02-15 23:45:00,50.4,44.1,30.14,ENE,63,10.4,10.4,79,0.00,CLR,,0.00,WeatherDisplay:10.37,2013-02-15 22:45:00,
2013-02-15 23:50:00,50.4,44.1,30.14,ENE,60,10.4,10.4,79,0.00,CLR,,0.00,WeatherDisplay:10.37,2013-02-15 22:50:00,
2013-02-15 23:55:00,50.4,44.1,30.14,ENE,69,10.4,10.4,79,0.00,CLR,,0.00,WeatherDisplay:10.37,2013-02-15 22:55:00,